Location: Dannhausen
(51.8650°N, 10.1026°E)
Time: 16:40:10
(UTC+00:00)

Cosmos 2084 - Pass Details

Date: 09 April 2020
Orbit: 571 x 612 km, 62.8° (Epoch: 02 June)

Event Time Altitude Azimuth Distance (km) Brightness Sun altitude
Rises 21:51:47 0° 312° (NW) 2,880 8.0 -27.1°
Reaches altitude 10° 21:54:04 10° 312° (NW) 1,968 7.0 -27.3°
Enters shadow 21:57:21 48° 304° (NW) 797 4.3 -27.5°
